Regional Weather Roundup
Issued by NWS

Home | Current Version | Previous Version | Graphics & Text | Print | Product List | Glossary On
Versions: 1 2 3 4 5 6 7 8 9 10 11 12 13 14 15 16 17 18 19 20 21 22 23 24 25 26 27 28 29 30 31 32 33 34 35 36 37 38 39 40 41 42 43 44 45 46 47 48 49 50
000
ASUS43 KMKX 200100
RWRWI

WISCONSIN REGIONAL WEATHER ROUNDUP
NATIONAL WEATHER SERVICE MILWAUKEE/SULLIVAN WI
800 PM CDT SAT AUG 19 2017

NOTE: "FAIR" INDICATES FEW OR NO CLOUDS BELOW 12,000 FEET WITH NO
SIGNIFICANT WEATHER AND/OR OBSTRUCTIONS TO VISIBILITY.

WIZ001-002-006>008-014>016-023>028-200200-
NORTHWEST WISCONSIN

CITY           SKY/WX    TMP DP  RH WIND       PRES   REMARKS
SUPERIOR ARPT    N/A     74  64  69 SW6       29.84S
ASHLAND        CLEAR     70  63  78 S6        29.87R
HAYWARD        CLEAR     71  61  70 S3        29.89S
SIREN          CLEAR     73  60  62 SW5       29.89S
CUMBERLAND     CLEAR     70  59  68 CALM      29.91S
RICE LAKE      CLEAR     72  60  66 S3        29.91F
CHETEK         CLEAR     72  63  73 CALM      29.90F
LADYSMITH      CLEAR     72  62  70 S3        29.93S
EAU CLAIRE     NOT AVBL
MENOMONIE      CLEAR     73  62  67 S3        29.90S
NEW RICHMOND   CLEAR     73  60  63 S5        29.90S
OSCEOLA        CLEAR     73  62  66 S6        29.91S
$$

WIZ003>005-009-010-017-018-200200-
NORTH CENTRAL WISCONSIN

CITY           SKY/WX    TMP DP  RH WIND       PRES   REMARKS
MANITOWISH WTR CLEAR     70  60  70 CALM      29.91S
ARBOR VITAE    CLEAR     72  61  68 SW3       29.91S
WOODRUFF       CLEAR     72  61  68 SW3       29.91S
RHINELANDER    CLEAR     67  62  84 W3        29.94R
EAGLE RIVER    CLEAR     69  58  68 CALM      29.91S
LAND O LAKES   CLEAR     66  61  81 CALM      29.93S
PHILLIPS       CLEAR     70  62  75 SW3       29.91S
TOMAHAWK         N/A     68  60  76 CALM      29.93S
MEDFORD        CLEAR     69  59  69 SW5       29.93S
MERRILL        NOT AVBL
$$

WIZ029-030-035-036-043>047-200200-
CENTRAL WISCONSIN

CITY           SKY/WX    TMP DP  RH WIND       PRES   REMARKS
WAUSAU         CLEAR     71  59  65 SW5       29.91S
MOSINEE        CLEAR     70  61  73 SW5       29.94F
MARSHFIELD     CLEAR     69  59  70 SW3       29.93S
STEVENS POINT  CLEAR     73  58  59 CALM      29.94S
WAUPACA        CLEAR     76  59  55 CALM      29.92S
WAUTOMA        CLEAR     69  62  78 CALM      29.93S
WISC RAPIDS    CLEAR     70  61  73 SW3       29.94S
CAMP DOUGLAS   CLEAR     66  61  81 CALM      29.93S
$$

WIZ011>013-019>022-031-037>040-048>050-200200-
NORTHEAST WISCONSIN

CITY           SKY/WX    TMP DP  RH WIND       PRES   REMARKS
ANTIGO         CLEAR     69  59  70 W7        29.94S
SHAWANO        CLEAR     76  60  57 SW3       29.90S
OCONTO         CLEAR     73  63  71 CALM      29.89R
STURGEON BAY   CLEAR     72  62  71 SW7       29.90R
GREEN BAY      CLEAR     69  65  86 SW5       29.90S
MANITOWOC      NOT AVBL
APPLETON       CLEAR     75  55  50 W3        29.91S
CLINTONVILLE   CLEAR     73  59  60 SW3       29.91S
OSHKOSH        CLEAR     74  61  63 SW3       29.92S
$$

WIZ032>034-041-042-053>061-200200-
SOUTHWEST WISCONSIN

CITY           SKY/WX    TMP DP  RH WIND       PRES   REMARKS
LA CROSSE      CLEAR     77  60  55 SW6       29.90S
SPARTA         CLEAR     73  62  67 CALM      29.93S
VIROQUA        CLEAR     73  61  66 S3        29.94F
BOSCOBEL       CLEAR     73  64  73 CALM      29.93R
PRAIRIE DU CHI CLEAR     76  58  53 CALM      29.92S
PLATTEVILLE    CLEAR     73  64  75 S3        29.95F
$$

WIZ056-057-062-063-064-067-068-200200-
SOUTH CENTRAL WISCONSIN

CITY           SKY/WX    TMP DP  RH WIND       PRES   REMARKS
REEDSBURG      CLEAR     73  60  63 CALM      29.93S
BARABOO/DELLS  CLEAR     73  57  58 CALM      29.94S
LONE ROCK      NOT AVBL
MINERAL POINT  CLEAR     73  61  64 S3        29.96S
MADISON        PTCLDY    74  62  66 SW3       29.94S
MIDDLETON      CLEAR     76  61  59 SW3       29.95S
WATERTOWN      CLEAR     73  65  77 CALM      29.94F
MONROE         CLEAR     73  61  64 S3        29.95F
JANESVILLE     CLEAR     75  63  64 CALM      29.94F
$$

WIZ051-052-058>065-066-070>072-200200-
SOUTHEAST WISCONSIN

CITY           SKY/WX    TMP DP  RH WIND       PRES   REMARKS
MILWAUKEE      CLEAR     77  61  57 SW6       29.94S
WAUKESHA       CLEAR     72  59  64 SW5       29.96S
MILWAUKEE/TIMM CLEAR     73  57  56 SW6       29.95S
RACINE         CLEAR     71  61  70 S5        29.97R
KENOSHA        CLEAR     71  61  70 S5        29.96R
FOND DU LAC    CLEAR     71  62  73 SW5       29.93S
SHEBOYGAN      CLEAR     70  64  81 SW6       29.93R
WEST BEND      CLEAR     72  61  68 SW3       29.95R
JUNEAU         CLEAR     72  63  73 S3        29.95S
$$

LSZ147-162-200200-
LAKE SUPERIOR

STATION/POSITION TIME  TEMP    WIND        PRES    WAVE
                       AIR SEA DIR/SP/G            HT/PER
                 (UTC) (F)     (DEG/KT/KT) (MB)    (FT/S)
W MID LAKE BUOY  2350   65 60  210/ 10/ 10 1009.8F   1/ 4
DEVILS ISLAND    0000   74     220/ 11/ 13 1009.8F
SAXON HARBOR     0040   71     200/  2/  3 1010.5S
$$

LMZ867-665-643>646-200200-
LAKE MICHIGAN

STATION/POSITION TIME  TEMP    WIND        PRES    WAVE
                       AIR SEA DIR/SP/G            HT/PER
                 (UTC) (F)     (DEG/KT/KT) (MB)    (FT/S)
S GREEN BAY BUOY 0030   74 72  230/  8/ 10 1011.8R
N MID LAKE BUOY  2350   69 67  190/ 16/ 17 1011.4F   2/ 4
NORTHPORT PIER   0040   74     220/  1/  5 1011.2R
KEWAUNEE LAKESHO 0030   77     230/  4/  6 1011.7S
SHEBOYGAN LAKESH 0000   72     180/ 13/ 13 1012.8R
PORT WASHINGTON  0040   72     180/  9/ 11 1014.2S
ATWATER BUOY     2309   72 71  150/ 10/ 12 1013.7F
MILWAUKEE LAKESH 0030   78     250/  6/  7   N/A
S MID LAKE BUOY  2350   72 72  170/  8/ 10 1014.1F   1
KENOSHA   LAKESH 0000   73     170/ 11/ 14 1013.9
$$

TC  - TEMPERATURE IN CELSIUS
VSB - VISIBILITY IN STATUTE MILES
WCI - WIND CHILL INDEX
HX  - HEAT INDEX




USA.gov is the U.S. government's official web portal to all federal, state and local government web resources and services.